DW3588 Weather Reports


Display with metric or nautical units.
time (UTC)temp
F
wind
direction
speed
MPH
gust
MPH
rain 1hr
in
rain 24hr
in
rain mn
in
humidity
%
barometer
mb
20260506224146 79 308 3.0 9.0 0.00 0.00 0.00 48 1017.0
20260506223646 80 292 4.0 11.0 0.00 0.00 0.00 47 1017.1
20260506223146 78 277 4.0 11.0 0.00 0.00 0.00 49 1017.1
20260506222647 78 0 4.0 11.0 0.00 0.00 0.00 49 1017.3
20260506222404 78 348 4.0 11.0 0.00 0.00 0.00 49 1017.3
20260506221648 79 348 4.0 13.0 0.00 0.00 0.00 49 1017.3
20260506221148 79 347 3.0 13.0 0.00 0.00 0.00 48 1017.4
20260506220647 78 121 5.0 11.0 0.00 0.00 0.00 49 1017.5
20260506220146 78 19 5.0 11.0 0.00 0.00 0.00 48 1017.6
20260506215645 78 315 4.0 10.0 0.00 0.00 0.00 49 1017.7
20260506215147 78 350 5.0 11.0 0.00 0.00 0.00 49 1017.7
20260506214643 78 304 5.0 11.0 0.00 0.00 0.00 48 1017.8
20260506214143 78 31 4.0 11.0 0.00 0.00 0.00 49 1017.8
20260506213641 77 14 4.0 9.0 0.00 0.00 0.00 49 1017.9
20260506213405 77 333 4.0 10.0 0.00 0.00 0.00 49 1017.9
20260506212641 77 44 4.0 10.0 0.00 0.00 0.00 47 1018.0
20260506212139 78 319 3.0 6.0 0.00 0.00 0.00 46 1018.0
20260506211638 78 84 3.0 8.0 0.00 0.00 0.00 47 1018.0
20260506211139 78 94 3.0 8.0 0.00 0.00 0.00 47 1018.1
20260506210636 77 78 3.0 8.0 0.00 0.00 0.00 47 1018.2
20260506210137 77 344 2.0 5.0 0.00 0.00 0.00 47 1018.2
20260506205638 77 298 3.0 11.0 0.00 0.00 0.00 47 1018.2
20260506205137 78 302 5.0 11.0 0.00 0.00 0.00 46 1018.3
20260506204859 77 36 3.0 9.0 0.00 0.00 0.00 47 1018.3
20260506204136 77 13 3.0 8.0 0.00 0.00 0.00 47 1018.4
20260506203637 78 275 5.0 11.0 0.00 0.00 0.00 47 1018.4
20260506203137 77 271 5.0 11.0 0.00 0.00 0.00 47 1018.5
20260506202637 77 311 5.0 11.0 0.00 0.00 0.00 47 1018.6
20260506202135 77 21 3.0 10.0 0.00 0.00 0.00 48 1018.7
20260506201634 76 253 3.0 10.0 0.00 0.00 0.00 48 1018.7
20260506201136 77 309 4.0 11.0 0.00 0.00 0.00 48 1018.9
20260506200636 76 355 4.0 11.0 0.00 0.00 0.00 50 1019.0
20260506200134 75 339 4.0 10.0 0.00 0.00 0.00 49 1019.0
20260506195855 76 11 3.0 10.0 0.00 0.00 0.00 48 1019.0
20260506195137 75 83 4.0 9.0 0.00 0.00 0.00 50 1019.1
20260506194635 76 15 4.0 9.0 0.00 0.00 0.00 49 1019.1
20260506194135 76 59 3.0 6.0 0.00 0.00 0.00 50 1019.1
20260506193635 75 350 2.0 8.0 0.00 0.00 0.00 51 1019.1
20260506193356 76 92 2.0 8.0 0.00 0.00 0.00 49 1019.2
20260506192855 76 219 3.0 8.0 0.00 0.00 0.00 51 1019.2
20260506192135 75 249 4.0 8.0 0.00 0.00 0.00 51 1019.2
20260506191632 75 345 3.0 8.0 0.00 0.00 0.00 52 1019.3
20260506191132 74 17 3.0 8.0 0.00 0.00 0.00 51 1019.3
20260506190633 73 42 3.0 8.0 0.00 0.00 0.00 50 1019.4
20260506190133 73 73 3.0 7.0 0.00 0.00 0.00 52 1019.4
20260506185632 73 62 3.0 8.0 0.00 0.00 0.00 53 1019.4
20260506185616 74 113 2.0 8.0 0.00 0.00 0.00 51 1019.4
20260506184631 74 355 3.0 7.0 0.00 0.00 0.00 52 1019.5
20260506184130 74 103 3.0 8.0 0.00 0.00 0.00 51 1019.6
20260506183631 75 346 3.0 8.0 0.00 0.00 0.00 51 1019.6
20260506183352 73 113 2.0 8.0 0.00 0.00 0.00 54 1019.6
20260506182631 73 55 3.0 8.0 0.00 0.00 0.00 54 1019.6
20260506182130 72 347 3.0 8.0 0.00 0.00 0.00 55 1019.7
20260506181625 72 30 4.0 8.0 0.00 0.00 0.00 54 1019.7
20260506181126 72 82 3.0 7.0 0.00 0.00 0.00 55 1019.7
20260506180621 72 5 3.0 7.0 0.00 0.00 0.00 57 1019.7
20260506180121 72 22 3.0 5.0 0.00 0.00 0.00 55 1019.7
20260506175621 72 325 2.0 6.0 0.00 0.00 0.00 56 1019.7
20260506175121 71 355 2.0 6.0 0.00 0.00 0.00 57 1019.7
20260506175112 71 50 2.0 6.0 0.00 0.00 0.00 59 1019.7
20260506174121 70 60 3.0 7.0 0.00 0.00 0.00 59 1019.7
20260506173619 69 48 3.0 7.0 0.00 0.00 0.00 60 1019.7
20260506173117 68 31 2.0 6.0 0.00 0.00 0.00 61 1019.7
20260506172617 69 21 2.0 9.0 0.00 0.00 0.00 62 1019.7
20260506172115 68 332 2.0 9.0 0.00 0.00 0.00 61 1019.8
20260506171836 68 199 1.0 5.0 0.00 0.00 0.00 62 1019.8
20260506171335 67 318 2.0 5.0 0.00 0.00 0.00 62 1019.8
20260506170829 67 343 2.0 5.0 0.00 0.00 0.00 63 1019.8
20260506170108 67 5 2.0 5.0 0.00 0.00 0.00 62 1019.8
20260506165605 67 355 2.0 6.0 0.00 0.00 0.00 63 1019.7
20260506165327 66 16 1.0 6.0 0.00 0.00 0.00 63 1019.7
20260506164807 66 328 2.0 4.0 0.00 0.00 0.00 65 1019.8
20260506164304 65 330 3.0 5.0 0.00 0.00 0.00 65 1019.8
20260506163533 65 313 2.0 10.0 0.00 0.00 0.00 66 1019.8
20260506163033 65 311 1.0 10.0 0.00 0.00 0.00 66 1019.8
20260506162533 64 233 1.0 4.0 0.00 0.00 0.00 66 1019.8
20260506162032 64 233 1.0 4.0 0.00 0.00 0.00 68 1019.8
20260506161752 62 311 1.0 5.0 0.00 0.00 0.00 70 1019.8
20260506161030 62 311 2.0 5.0 0.00 0.00 0.00 71 1019.8
20260506160527 62 286 1.0 3.0 0.00 0.00 0.00 72 1019.8
20260506160025 61 240 1.0 3.0 0.00 0.00 0.00 73 1019.8
20260506155522 61 221 1.0 3.0 0.00 0.00 0.00 74 1019.9
20260506155021 60 221 1.0 3.0 0.00 0.00 0.00 74 1019.9
20260506154518 60 213 1.0 4.0 0.00 0.00 0.00 75 1019.9
20260506154016 60 211 1.0 4.0 0.00 0.00 0.00 76 1019.9
20260506153515 60 211 1.0 2.0 0.00 0.00 0.00 76 1019.9
20260506153013 59 211 1.0 3.0 0.00 0.00 0.00 77 1020.0
20260506152513 59 211 1.0 3.0 0.00 0.00 0.00 77 1020.0
20260506152012 59 211 1.0 2.0 0.00 0.00 0.00 78 1020.0
20260506151511 58 211 1.0 3.0 0.00 0.00 0.00 78 1020.0
20260506151009 58 211 1.0 3.0 0.00 0.00 0.00 78 1019.9
20260506150507 58 212 1.0 4.0 0.00 0.00 0.00 78 1019.9
20260506150005 58 212 1.0 4.0 0.00 0.00 0.00 79 1020.0
20260506145504 58 215 2.0 3.0 0.00 0.00 0.00 79 1019.9
20260506145002 58 217 1.0 3.0 0.00 0.00 0.00 79 1019.9
20260506144501 58 219 1.0 3.0 0.00 0.00 0.00 79 1019.9
20260506144001 57 219 1.0 3.0 0.00 0.00 0.00 79 1019.8
20260506143459 57 220 1.0 4.0 0.00 0.00 0.00 80 1019.8
20260506142957 57 221 1.0 4.0 0.00 0.00 0.00 79 1019.8
20260506142938 57 225 1.0 4.0 0.00 0.00 0.00 79 1019.7
20260506141955 57 225 2.0 5.0 0.00 0.00 0.00 79 1019.7
20260506141454 57 223 2.0 5.0 0.00 0.00 0.00 79 1019.6
20260506140941 56 223 2.0 6.0 0.00 0.00 0.00 79 1019.5
20260506140659 56 229 2.0 6.0 0.00 0.00 0.00 79 1019.5
20260506135938 56 230 2.0 4.0 0.00 0.00 0.00 79 1019.4
20260506135438 56 240 2.0 5.0 0.00 0.00 0.00 79 1019.5
20260506134937 56 240 2.0 5.0 0.00 0.00 0.00 79 1019.4
20260506134437 56 257 2.0 4.0 0.00 0.00 0.00 79 1019.4
20260506133936 56 238 2.0 5.0 0.00 0.00 0.00 79 1019.4
20260506133435 56 235 3.0 5.0 0.00 0.00 0.00 79 1019.3
20260506132937 56 242 2.0 5.0 0.00 0.00 0.00 80 1019.3
20260506132658 56 244 2.0 5.0 0.00 0.00 0.00 79 1019.2
20260506131933 56 248 2.0 4.0 0.00 0.00 0.00 80 1019.1
20260506131434 56 254 2.0 4.0 0.00 0.00 0.00 80 1019.1
20260506130933 56 256 1.0 4.0 0.00 0.00 0.00 80 1019.1
20260506130432 56 306 0.0 2.0 0.00 0.00 0.00 80 1019.0
20260506125930 56 307 0.0 2.0 0.00 0.00 0.00 80 1019.0
20260506125427 56 307 0.0 2.0 0.00 0.00 0.00 80 1019.0
20260506124927 56 307 1.0 3.0 0.00 0.00 0.00 80 1019.0
20260506124646 56 308 0.0 3.0 0.00 0.00 0.00 80 1019.0
20260506123923 56 308 0.0 3.0 0.00 0.00 0.00 80 1019.0
20260506123421 56 308 0.0 0.0 0.00 0.00 0.00 80 1018.9
20260506122922 56 308 0.0 0.0 0.00 0.00 0.00 80 1018.9
20260506122419 56 308 0.0 1.0 0.00 0.00 0.00 80 1018.9
20260506121918 56 308 0.0 1.0 0.00 0.00 0.00 80 1018.9
20260506121418 56 308 0.0 1.0 0.00 0.00 0.00 80 1018.9
20260506120918 56 308 0.0 0.0 0.00 0.00 0.00 80 1018.9
20260506120417 56 308 0.0 1.0 0.00 0.00 0.00 81 1018.9
20260506120136 56 308 0.0 1.0 0.00 0.00 0.00 81 1018.8
20260506115413 56 308 0.0 1.0 0.00 0.00 0.00 81 1018.8
20260506115136 56 308 0.0 1.0 0.00 0.00 0.00 81 1018.7
20260506114410 56 308 0.0 2.0 0.00 0.00 0.00 81 1018.7
20260506113908 56 308 0.0 2.0 0.00 0.00 0.00 81 1018.7
20260506113406 56 308 0.0 1.0 0.00 0.00 0.00 81 1018.6
20260506112907 56 308 0.0 1.0 0.00 0.00 0.00 81 1018.5
20260506112406 56 308 0.0 1.0 0.00 0.00 0.00 81 1018.5
20260506111905 56 308 0.0 1.0 0.00 0.00 0.00 81 1018.4
20260506111404 56 308 0.0 1.0 0.00 0.00 0.00 81 1018.4
20260506110903 56 308 0.0 0.0 0.00 0.00 0.00 81 1018.3
20260506110632 56 308 0.0 1.0 0.00 0.00 0.00 81 1018.3
20260506105859 56 308 0.0 2.0 0.00 0.00 0.00 81 1018.2
20260506105400 56 308 0.0 2.0 0.00 0.01 0.00 81 1018.3
20260506104859 56 308 0.0 1.0 0.00 0.01 0.00 81 1018.2
20260506104353 56 308 0.0 2.0 0.00 0.01 0.00 81 1018.2
20260506103850 56 309 1.0 2.0 0.00 0.01 0.00 81 1018.2
20260506103350 56 309 1.0 2.0 0.00 0.01 0.00 81 1018.1
20260506102850 56 315 0.0 2.0 0.00 0.01 0.00 81 1018.2
20260506102350 56 315 0.0 2.0 0.00 0.01 0.00 81 1018.1
20260506101849 56 316 0.0 1.0 0.00 0.02 0.00 81 1018.1
20260506101348 56 315 0.0 2.0 0.00 0.02 0.00 81 1018.0
20260506100847 56 316 1.0 2.0 0.00 0.02 0.00 81 1018.1
20260506100345 56 316 1.0 2.0 0.00 0.02 0.00 81 1018.1
20260506095846 56 329 0.0 2.0 0.00 0.02 0.00 81 1018.0
20260506095346 56 330 0.0 1.0 0.00 0.02 0.00 81 1018.0
20260506094840 56 330 0.0 1.0 0.00 0.03 0.00 81 1018.0
20260506094555 56 330 0.0 1.0 0.00 0.03 0.00 81 1017.9
20260506093836 56 330 0.0 2.0 0.00 0.04 0.00 81 1018.0
20260506093336 56 330 0.0 2.0 0.00 0.05 0.00 81 1017.9
20260506092834 56 330 0.0 0.0 0.00 0.05 0.00 81 1017.9
20260506092332 56 330 0.0 1.0 0.00 0.05 0.00 81 1017.9
20260506091832 56 330 0.0 1.0 0.00 0.05 0.00 81 1018.0
20260506091822 56 330 0.0 1.0 0.00 0.05 0.00 81 1017.9
20260506090829 56 330 0.0 1.0 0.00 0.05 0.00 81 1018.0
20260506090329 56 330 0.0 0.0 0.00 0.06 0.00 81 1018.1
20260506085829 56 330 0.0 1.0 0.00 0.06 0.00 81 1018.0
20260506085329 56 330 0.0 2.0 0.00 0.06 0.00 81 1018.1
20260506084825 56 330 0.0 2.0 0.00 0.06 0.00 81 1018.1
20260506084549 56 330 0.0 2.0 0.00 0.06 0.00 80 1018.1
20260506083823 55 330 0.0 2.0 0.00 0.06 0.00 80 1018.1
20260506083322 55 330 0.0 1.0 0.00 0.06 0.00 80 1018.1
20260506083045 55 330 1.0 3.0 0.00 0.06 0.00 80 1018.1
20260506082320 55 330 1.0 3.0 0.00 0.06 0.00 80 1018.0
20260506081820 55 329 0.0 2.0 0.00 0.06 0.00 80 1018.0
20260506081316 55 329 1.0 4.0 0.00 0.06 0.00 80 1017.9
20260506080814 55 329 1.0 4.0 0.00 0.06 0.00 79 1017.9
20260506080321 55 272 1.0 3.0 0.00 0.06 0.00 79 1017.9
20260506073302 56 269 0.0 2.0 0.00 0.06 0.00 77 1017.6
20260506072800 56 269 0.0 2.0 0.00 0.06 0.00 77 1017.7
20260506072523 56 274 1.0 4.0 0.00 0.06 0.00 77 1017.6
20260506071756 56 274 1.0 4.0 0.00 0.06 0.00 77 1017.6
20260506071529 56 275 1.0 4.0 0.00 0.06 0.00 77 1017.6
20260506070755 56 275 1.0 4.0 0.00 0.06 0.00 77 1017.5
20260506070255 56 285 1.0 3.0 0.00 0.06 0.00 77 1017.5
20260506062254 57 261 1.0 3.0 0.00 0.07 0.07 75 1017.2
20260506061753 57 259 1.0 3.0 0.00 0.07 0.07 75 1017.2
20260506061252 57 259 1.0 3.0 0.00 0.07 0.07 75 1017.1
20260506060751 58 258 1.0 3.0 0.00 0.07 0.07 74 1017.1
20260506060252 58 258 1.0 3.0 0.00 0.07 0.07 74 1017.0
20260506051235 60 255 0.0 2.0 0.00 0.07 0.07 71 1016.6
20260506050733 60 255 0.0 2.0 0.00 0.07 0.07 71 1016.5
20260506050232 60 255 0.0 2.0 0.00 0.07 0.07 71 1016.5
20260506044726 60 256 0.0 2.0 0.00 0.07 0.07 70 1016.4
20260506044226 60 256 0.0 2.0 0.00 0.07 0.07 70 1016.4
20260506043721 61 256 1.0 4.0 0.00 0.07 0.07 70 1016.3
20260506043220 61 256 3.0 4.0 0.00 0.07 0.07 70 1016.2
20260506042719 61 245 3.0 7.0 0.00 0.07 0.07 70 1016.0
20260506042216 61 247 3.0 7.0 0.00 0.07 0.07 69 1016.0
20260506041716 61 242 3.0 7.0 0.00 0.07 0.07 69 1015.9
20260506041212 61 245 4.0 7.0 0.00 0.07 0.07 69 1015.7
20260506040936 61 250 4.0 8.0 0.00 0.07 0.07 69 1015.7
20260506040210 62 243 4.0 8.0 0.00 0.07 0.07 69 1015.7
20260506035709 62 234 3.0 7.0 0.00 0.07 0.07 69 1015.8
20260506035430 62 244 3.0 7.0 0.00 0.07 0.07 69 1015.8
20260506034708 62 235 3.0 7.0 0.00 0.07 0.07 69 1015.7
20260506034208 62 241 4.0 7.0 0.00 0.07 0.07 69 1015.7
20260506033708 62 238 3.0 6.0 0.00 0.07 0.07 68 1015.7
20260506033206 62 232 3.0 7.0 0.00 0.07 0.07 68 1015.6
20260506032705 62 236 3.0 7.0 0.00 0.07 0.07 68 1015.5
20260506032207 62 247 4.0 8.0 0.00 0.07 0.07 68 1015.4
20260506031705 63 243 3.0 8.0 0.00 0.07 0.07 68 1015.4
20260506031203 63 258 3.0 8.0 0.00 0.07 0.07 68 1015.3
20260506030655 63 237 3.0 8.0 0.00 0.07 0.07 67 1015.3
20260506030154 63 240 3.0 7.0 0.00 0.07 0.07 67 1015.2
20260506025921 63 263 3.0 7.0 0.00 0.07 0.07 67 1015.3
20260506025152 63 232 3.0 7.0 0.00 0.07 0.07 67 1015.2
20260506024914 63 267 3.0 7.0 0.00 0.07 0.07 67 1015.1
20260506024150 64 232 3.0 8.0 0.00 0.07 0.07 67 1015.1
20260506023649 64 268 3.0 8.0 0.00 0.07 0.07 67 1015.1
20260506023150 64 240 3.0 6.0 0.00 0.07 0.07 67 1015.0
20260506022650 64 281 3.0 6.0 0.00 0.07 0.07 66 1015.0
20260506022148 64 252 3.0 6.0 0.00 0.07 0.07 66 1014.9
20260506021646 64 219 3.0 5.0 0.00 0.07 0.07 66 1014.9
20260506021144 64 230 3.0 7.0 0.00 0.07 0.07 66 1014.9
20260506020641 64 240 4.0 9.0 0.00 0.07 0.07 66 1014.8
20260506020142 65 238 4.0 9.0 0.00 0.07 0.07 66 1014.8
20260506015642 65 211 4.0 8.0 0.00 0.07 0.07 66 1014.7
20260506015401 65 225 4.0 8.0 0.00 0.07 0.07 66 1014.7
20260506014634 65 248 4.0 8.0 0.00 0.07 0.07 66 1014.7
20260506014134 65 219 3.0 7.0 0.00 0.07 0.07 66 1014.6
20260506013634 65 220 3.0 7.0 0.00 0.07 0.07 66 1014.7
20260506013135 65 194 3.0 5.0 0.00 0.07 0.07 66 1014.7
20260506012632 65 231 2.0 5.0 0.00 0.07 0.07 66 1014.7
20260506012125 65 213 2.0 4.0 0.00 0.07 0.07 65 1014.7
20260506011627 65 227 2.0 5.0 0.00 0.07 0.07 65 1014.6
20260506011124 65 205 2.0 5.0 0.00 0.07 0.07 65 1014.6
20260506010845 65 211 2.0 5.0 0.00 0.07 0.07 65 1014.7
20260506010124 65 193 3.0 7.0 0.00 0.07 0.07 65 1014.7
20260506005621 65 198 3.0 8.0 0.00 0.07 0.07 65 1014.6
20260506005123 65 224 3.0 8.0 0.00 0.07 0.07 66 1014.6
20260506004620 65 206 3.0 8.0 0.00 0.07 0.07 66 1014.6
20260506004119 65 216 3.0 8.0 0.00 0.07 0.07 66 1014.6
20260506003611 65 205 3.0 7.0 0.00 0.07 0.07 66 1014.6
20260506003111 65 200 3.0 8.0 0.00 0.07 0.07 66 1014.6
20260506002608 65 223 3.0 8.0 0.00 0.07 0.07 66 1014.6
20260506002325 66 225 3.0 7.0 0.00 0.07 0.07 66 1014.5
20260506001607 66 228 3.0 7.0 0.00 0.07 0.07 65 1014.5
20260506001105 66 241 4.0 8.0 0.00 0.07 0.07 65 1014.5
20260506000604 66 270 4.0 8.0 0.00 0.07 0.07 65 1014.5
20260506000101 66 242 4.0 8.0 0.00 0.07 0.07 65 1014.5
20260505235559 66 234 4.0 8.0 0.00 0.07 0.07 65 1014.5
20260505235059 66 246 3.0 8.0 0.00 0.07 0.07 65 1014.5
20260505234600 66 282 2.0 6.0 0.00 0.07 0.07 65 1014.5
20260505234059 66 250 2.0 5.0 0.00 0.07 0.07 65 1014.5
20260505233831 66 232 2.0 5.0 0.00 0.07 0.07 65 1014.5
20260505233050 66 233 2.0 5.0 0.00 0.07 0.07 65 1014.4
20260505232550 66 195 2.0 5.0 0.00 0.07 0.07 65 1014.5
20260505232050 66 169 2.0 5.0 0.00 0.07 0.07 66 1014.4
20260505231550 66 270 1.0 4.0 0.00 0.07 0.07 65 1014.5
20260505231049 66 274 2.0 7.0 0.00 0.07 0.07 65 1014.5
20260505230809 66 273 3.0 7.0 0.00 0.07 0.07 65 1014.5
20260505230049 66 279 2.0 7.0 0.00 0.07 0.07 65 1014.5
20260505225549 66 276 1.0 4.0 0.00 0.07 0.07 66 1014.6
20260505225049 66 274 2.0 4.0 0.00 0.07 0.07 66 1014.6
20260505224547 66 277 2.0 4.0 0.00 0.07 0.07 65 1014.6